[keps] orb07095.2l.amsat
Ray Hoad
r.hoad at att.net
Thu Apr 5 19:26:13 PDT 2007
SB KEPS @ AMSAT $ORB07095.N
2Line Orbital Elements 07095.AMSAT
HR AMSAT ORBITAL ELEMENTS FOR AMATEUR SATELLITES IN NASA FORMAT
FROM WA5QGD FORT WORTH,TX April 5, 2007
Send SUBSCRIBE KEPS/UNSUBSCRIBE KEPS to majordomo at amsat.org only
BID: ORB07095.N
DECODE 2-LINE ELSETS WITH THE FOLLOWING KEY:
1 AAAAAU 00 0 0 BBBBB.BBBBBBBB .CCCCCCCC 00000-0 00000-0 0 DDDZ
2 AAAAA EEE.EEEE FFF.FFFF GGGGGGG HHH.HHHH III.IIII JJ.JJJJJJJJKKKKKZ
KEY: A-CATALOGNUM B-EPOCHTIME C-DECAY D-ELSETNUM E-INCLINATION F-RAAN
G-ECCENTRICITY H-ARGPERIGEE I-MNANOM J-MNMOTION K-ORBITNUM Z-CHECKSUM
TO ALL RADIO AMATEURS BT
AO-07
1 07530U 74089B 07094.63977211 -.00000028 00000-0 10000-3 0 8443
2 07530 101.5238 134.7908 0012100 039.8933 320.3027 12.53572688481904
AO-10
1 14129U 83058B 07093.74349903 -.00000129 00000-0 10000-3 0 03709
2 14129 026.7443 283.7549 6056090 011.0643 357.8642 02.05870816179036
UO-11
1 14781U 84021B 07094.47501370 -.00000110 00000-0 -73525-5 0 3404
2 14781 098.1949 115.7351 0010117 052.4866 307.7269 14.79536316238830
RS-10/11
1 18129U 87054A 07094.58240754 .00000041 00000-0 28326-4 0 2634
2 18129 082.9221 112.6351 0012686 011.4787 348.6653 13.72786030991132
RS-15
1 23439U 94085A 07094.98939878 -.00000039 00000-0 10597-3 0 00605
2 23439 064.8143 125.2971 0161579 203.8211 155.5174 11.27551716505444
FO-29
1 24278U 96046B 07094.91550223 .00000019 00000-0 58104-4 0 04879
2 24278 098.5421 064.4238 0349813 273.2559 082.8624 13.52929052524999
SO-33
1 25509U 98061B 07094.86912471 .00000309 00000-0 49361-4 0 9004
2 25509 031.4285 280.2771 0354982 146.4104 215.9591 14.28159374440761
AO-40
1 26609U 00072B 07095.88450706 .00000006 00000-0 10750-2 0 8609
2 26609 004.9917 158.7753 7993201 298.1688 005.0340 01.25586056 29533
VO-52
1 28650U 05017B 07093.26471000 .00000147 00000-0 25413-4 0 05956
2 28650 097.8368 165.6438 0028252 136.0911 224.2549 14.81288837103324
PO-63
1 29712U 07001D 07094.87325053 .00000821 00000-0 11629-3 0 02493
2 29712 097.9285 155.0334 0014494 012.3744 347.7835 14.79619930012499
AO-16
1 20439U 90005D 07094.50219479 .00000035 00000-0 28244-4 0 00048
2 20439 098.1946 093.1254 0011849 049.1143 311.1069 14.31755373898001
LO-19
1 20442U 90005G 07094.48314269 -.00000017 00000-0 86894-5 0 09307
2 20442 098.1812 102.5482 0012788 048.8619 311.3674 14.31996189898143
AO-27
1 22825U 93061C 07094.47855726 -.00000053 00000-0 -47714-5 0 6548
2 22825 098.3236 067.5992 0009259 117.5750 242.6353 14.29203797704966
IO-26
1 22826U 93061D 07094.46855669 .00000022 00000-0 24695-4 0 3503
2 22826 098.3168 068.6920 0009625 113.4383 246.7814 14.29449880705040
PO-28
1 22829U 93061G 07094.46059259 .00000029 00000-0 27269-4 0 06293
2 22829 098.3060 069.8611 0010696 089.3341 270.9100 14.30149144705273
GO-32
1 25397U 98043D 07093.63370224 -.00000167 00000-0 -55379-4 0 02695
2 25397 098.4233 144.0804 0002152 087.4505 272.6908 14.23121981453555
MO-46
1 26548U 00057D 07094.34993320 .00000082 00000-0 28051-4 0 07639
2 26548 064.5565 051.0863 0024095 207.0748 152.9105 14.83118357352597
NO-44
1 26931U 01043C 07093.64432325 -.00000199 00000-0 -45561-4 0 05562
2 26931 067.0551 339.5096 0006819 274.8178 085.2155 14.29477341287446
SO-50
1 27607U 02058C 07094.10097886 -.00000053 00000-0 13475-4 0 2813
2 27607 064.5592 309.9673 0045601 022.6433 337.6682 14.71243612230223
CO-55
1 27844U 03031E 07094.49770136 .00000070 00000-0 53130-4 0 09981
2 27844 098.7204 103.8021 0009333 308.7128 051.3226 14.20501570195019
CO-57
1 27848U 03031J 07094.01578191 .00000056 00000-0 46522-4 0 09600
2 27848 098.7196 102.5487 0009341 313.2002 046.8388 14.20321910194921
AO-51
1 28375U 04025K 07094.17911412 .00000016 00000-0 17435-4 0 07856
2 28375 098.1228 137.2828 0085193 046.8255 314.0015 14.40560989145060
CO-56
1 28941U 06005C 07094.76515450 .00034382 26185-5 36536-3 0 04019
2 28941 098.1364 147.8170 0238089 172.3333 188.1723 15.36695548062142
HO-59
1 29484U 06041F 07094.76660533 .00058647 32868-5 43998-3 0 2568
2 29484 098.2958 133.6638 0229543 167.9501 192.7563 15.45229759 29715
NO-60
1 29661U 06055C 07095.10047394 .00127604 17706-4 30049-3 0 1568
2 29661 051.6378 113.2300 0012581 055.3750 304.7830 15.96472677 16701
NO-61
1 29664U 06055F 07094.92255413 .00039920 00000-0 15123-3 0 01196
2 29664 051.6307 117.2780 0016583 055.1973 305.0571 15.87032094016502
NOAA-10
1 16969U 86073A 07094.62707883 .00000105 00000-0 61205-4 0 06100
2 16969 098.7507 111.7504 0012899 025.6306 334.5513 14.27321827068734
NOAA-11
1 19531U 88089A 07094.86694873 .00000250 00000-0 15204-3 0 6093
2 19531 098.8100 184.9467 0010997 237.8685 122.1423 14.14841532955783
NOAA-12
1 21263U 91032A 07095.79773428 .00000045 00000-0 18826-4 0 1021
2 21263 098.7520 093.1628 0012368 321.4684 038.6087 14.25526089825979
MET-3/5
1 21655U 91056A 07094.93774752 .00000051 00000-0 10000-3 0 02964
2 21655 082.5496 054.6838 0014434 034.6395 325.5664 13.17010508751768
MET-2/21
1 22782U 93055A 07093.52302202 .00000033 00000-0 15967-4 0 07905
2 22782 082.5434 101.1519 0024068 085.9792 274.4112 13.83616831686198
OKEAN-4
1 23317U 94066A 07094.81285210 .00000285 00000-0 32357-4 0 02293
2 23317 082.5429 004.9885 0023306 130.9707 229.3501 14.82486041673188
NOAA-14
1 23455U 94089A 07095.81832815 .00000048 00000-0 25276-4 0 5888
2 23455 098.9958 161.5978 0008579 306.8274 053.2591 14.13709109632501
SICH-1
1 23657U 95046A 07094.80316366 .00000356 00000-0 42178-4 0 00328
2 23657 082.5287 145.9329 0025446 122.0250 238.3441 14.81468442625160
NOAA-15
1 25338U 98030A 07095.05905090 -.00000052 00000-0 -38841-5 0 9471
2 25338 098.5297 093.8071 0009796 240.3487 119.6720 14.24633376462276
RESURS
1 25394U 98043A 07094.78871549 -.00000008 00000-0 14507-4 0 6106
2 25394 098.4500 152.1983 0002424 052.7689 307.3711 14.24131506453909
FENGYUN1
1 25730U 99025A 07095.48419287 -.00000037 00000-0 31544-5 0 495
2 25730 098.6867 082.1167 0022040 338.0527 021.9700 14.07451675407239
OKEAN-0
1 25860U 99039A 07094.89003981 .00000105 00000-0 23438-4 0 00192
2 25860 097.7317 100.5637 0000507 066.0736 294.0518 14.73442019414709
NOAA-16
1 26536U 00055A 07095.01269642 -.00000167 00000-0 -65673-4 0 3613
2 26536 099.1111 070.7024 0010857 023.3186 336.8474 14.12414945336776
NOAA-17
1 27453U 02032A 07095.50748042 .00000208 00000-0 10972-3 0 3704
2 27453 098.5844 166.5377 0010931 307.5673 052.4515 14.23867667248377
NOAA-18
1 28654U 05018A 07095.50160900 -.00000153 00000-0 -60911-4 0 9072
2 28654 098.8239 038.0247 0015075 112.6192 247.6581 14.11050078 96601
HUBBLE
1 20580U 90037B 07094.96316038 .00000553 00000-0 30218-4 0 08530
2 20580 028.4680 307.6048 0003464 040.6680 319.4168 15.00217914728957
UARS
1 21701U 91063B 07094.91359636 .00009071 00000-0 15177-3 0 00567
2 21701 056.9736 271.7556 0098591 053.3697 307.6374 15.47444966854408
PO-34
1 25520U 98064B 07094.75499425 .00000632 00000-0 21442-4 0 7093
2 25520 028.4596 240.2151 0005872 176.0149 184.0489 15.16963463466368
ISS
1 25544U 98067A 07096.05241544 .00018679 00000-0 10406-3 0 9688
2 25544 051.6324 116.6836 0015959 034.7733 325.4839 15.78512434479385
OO-38
1 26063U 00004C 07094.86062374 -.00000018 00000-0 14300-4 0 8796
2 26063 100.2256 083.9420 0037079 006.6587 353.5078 14.35800661376527
NO-45
1 26932U 01043D 07094.97246262 -.00000035 00000-0 18542-4 0 05672
2 26932 067.0582 335.8462 0006006 291.3711 068.6749 14.29553426287670
UWE-1
1 28892U 05043C 07094.23820810 .00000255 00000-0 63496-4 0 07177
2 28892 098.1387 352.3215 0017366 346.8936 013.1827 14.59483929076425
CO-58
1 28895U 05043F 07094.49354578 .00000379 00000-0 89399-4 0 6964
2 28895 098.1414 352.7565 0017832 345.9801 014.0930 14.59534065 76344
NCUBE2
1 28897U 05043H 07094.64505700 .00000189 00000-0 49385-4 0 02199
2 28897 098.1390 352.8675 0017552 347.3657 012.7108 14.59693964068646
NMARS
1 29662U 06055D 07096.07612904 .00212079 00000-0 36563-3 0 1845
2 29662 051.6325 106.9368 0012014 058.9949 301.2778 16.01448979 16761
FCAL
1 29667U 06055J 07094.96264411 .00024792 00000-0 10256-3 0 01172
2 29667 051.6325 117.5564 0017041 058.6298 301.6365 15.85490500016372
FALCON
1 30776U 07006E 07094.90287969 .00000465 00000-0 37237-4 0 00415
2 30776 035.4348 296.9070 0000908 250.9452 109.1166 15.02671637004027
/EX
More information about the Keps
mailing list